Skip Page Navigation
NASA JPL Caltech
NASA Logo - Jet Propulsion Laboratory + View the NASA Portal
+ Near-Earth Object (NEO) Program
Search JPL
JPL Home Earth Solar System Stars & Galaxies Technology
JPL Solar System Dynamics
BODIES ORBITS EPHEMERIDES TOOLS PHYSICAL DATA DISCOVERY FAQ SITE MAP
JPL Small-Body Database Browser
Search: [ help ]  
20073 Yumiko (1994 AN2)
Classification: Main-belt Asteroid          SPK-ID: 2020073
Ephemeris | Orbit Diagram | Orbital Elements | Physical Parameters | Discovery Circumstances | Close-Approach Data ]

[ show orbit diagram ]
Orbital Elements at Epoch 2457000.5 (2014-Dec-09.0) TDB
Reference: JPL 9 (heliocentric ecliptic J2000)
 Element Value Uncertainty (1-sigma)   Units 
e .06477488797715486 6.8819e-08  
a 2.300734334667605 1.3727e-08 AU
q 2.151704525874317 1.5638e-07 AU
i 6.59055885773555 5.1495e-06 deg
node 305.4544496694774 6.396e-05 deg
peri 271.6120662695896 7.5227e-05 deg
M 266.4785819000692 4.139e-05 deg
tp 2457331.636245370600
(2015-Nov-05.13624537)
0.00014665 JED
period 1274.671094123455
3.49
1.1407e-05
3.123e-08
d
yr
n .2824257972583579 2.5275e-09 deg/d
Q 2.449764143460893 1.4616e-08 AU
  Orbit Determination Parameters
   # obs. used (total)      776  
   data-arc span      7370 days (20.18 yr)  
   first obs. used      1993-11-21  
   last obs. used      2014-01-25  
   planetary ephem.      DE431  
   SB-pert. ephem.      SB431-BIG16  
   condition code      0  
   fit RMS      .56912  
   data source      ORB  
   producer      Otto Matic  
   solution date      2014-Jun-09 22:36:39  

Additional Information
 Earth MOID = 1.15773 AU 
 T_jup = 3.580 
[ show covariance matrix ]

Ephemeris | Orbit Diagram | Orbital Elements | Physical Parameters | Discovery Circumstances | Close-Approach Data ]

Physical Parameter Table
Parameter Symbol Value Units Sigma Reference Notes
absolute magnitude H 14.8 mag n/a MPO267783  

20073 Yumiko           Discovered 1994 Jan. 9 by T. Kobayashi and H. Fujii at Oizumi.
Yumiko Fujii (b. 1968) is the wife of the second discoverer.
NOTE: some special characters may not display properly (any characters within {} are an attempt to place the proper accent above a character)
Reference: 20050407/MPCPages.arcLast Updated: 2005-04-15

[ show close-approach data ]
Alternate Designations
 1994 AN2 = 1998 FN111 
Ephemeris | Orbit Diagram | Orbital Elements | Physical Parameters | Discovery Circumstances | Close-Approach Data ]
ABOUT SSD CREDITS/AWARDS PRIVACY/COPYRIGHT GLOSSARY LINKS
FirstGov 2014-Aug-20 06:50 UT
(server date/time)  
NASA Home Page
Site Manager:   Donald K. Yeomans
Webmaster  Alan B. Chamberlin